| time (UTC) | temp C | wind direction | speed KPH | gust KPH | rain 1hr cm | rain 24hr cm | rain mn cm | humidity % | barometer mb |
| 20260905045042 | 25 | 8 | 1.6 | 6.4 | 0.00 | 0.25 | 0.25 | 57 | 1017.9 |
| 20260905044541 | 26 | 355 | 1.6 | 8.0 | 0.00 | 0.25 | 0.25 | 59 | 1017.9 |
| 20260905044041 | 26 | 346 | 1.6 | 8.0 | 0.00 | 0.25 | 0.25 | 58 | 1017.9 |
| 20260905043543 | 26 | 9 | 0.0 | 8.0 | 0.00 | 0.25 | 0.25 | 58 | 1017.9 |
| 20260905043052 | 26 | 353 | 3.2 | 6.4 | 0.00 | 0.25 | 0.25 | 57 | 1017.9 |
| 20260905042541 | 26 | 15 | 1.6 | 4.8 | 0.00 | 0.25 | 0.25 | 58 | 1017.9 |
| 20260905042043 | 25 | 347 | 1.6 | 6.4 | 0.00 | 0.25 | 0.25 | 58 | 1017.9 |
| 20260905041541 | 25 | 347 | 0.0 | 3.2 | 0.00 | 0.25 | 0.25 | 59 | 1017.8 |
| 20260905041040 | 25 | 347 | 0.0 | 1.6 | 0.00 | 0.25 | 0.25 | 63 | 1017.8 |
| 20260905040540 | 25 | 347 | 0.0 | 1.6 | 0.00 | 0.25 | 0.25 | 61 | 1017.8 |
| 20260905040043 | 25 | 347 | 0.0 | 0.0 | 0.00 | 0.25 | 0.25 | 61 | 1017.7 |
| 20260905035543 | 25 | 347 | 0.0 | 1.6 | 0.00 | 0.25 | 0.25 | 67 | 1017.7 |
| 20260905035043 | 25 | 347 | 0.0 | 1.6 | 0.00 | 0.25 | 0.25 | 66 | 1017.7 |
| 20260905034550 | 25 | 347 | 0.0 | 0.0 | 0.00 | 0.25 | 0.25 | 67 | 1017.6 |
| 20260905034038 | 25 | 347 | 0.0 | 0.0 | 0.00 | 0.25 | 0.25 | 66 | 1017.5 |
| 20260905033540 | 25 | 347 | 0.0 | 1.6 | 0.00 | 0.25 | 0.25 | 66 | 1017.5 |
| 20260905033107 | 26 | 347 | 0.0 | 1.6 | 0.00 | 0.25 | 0.25 | 65 | 1017.4 |
| 20260905032538 | 26 | 347 | 0.0 | 0.0 | 0.00 | 0.25 | 0.25 | 64 | 1017.4 |
| 20260905032038 | 26 | 347 | 0.0 | 3.2 | 0.00 | 0.25 | 0.25 | 62 | 1017.4 |
| 20260905031550 | 26 | 347 | 0.0 | 3.2 | 0.00 | 0.25 | 0.25 | 60 | 1017.4 |
| 20260905031036 | 26 | 347 | 0.0 | 3.2 | 0.00 | 0.25 | 0.25 | 61 | 1017.3 |
| 20260905030535 | 26 | 347 | 1.6 | 3.2 | 0.00 | 0.25 | 0.25 | 62 | 1017.3 |
| 20260905030050 | 26 | 347 | 0.0 | 6.4 | 0.00 | 0.25 | 0.25 | 61 | 1017.3 |
| 20260905025535 | 26 | 347 | 1.6 | 6.4 | 0.00 | 0.25 | 0.25 | 59 | 1017.2 |
| 20260905025034 | 26 | 347 | 0.0 | 6.4 | 0.00 | 0.25 | 0.25 | 57 | 1017.2 |
| 20260905024534 | 26 | 347 | 1.6 | 6.4 | 0.00 | 0.25 | 0.25 | 57 | 1017.1 |
| 20260905024034 | 26 | 350 | 1.6 | 6.4 | 0.00 | 0.25 | 0.25 | 57 | 1017.0 |
| 20260905023534 | 26 | 348 | 0.0 | 6.4 | 0.00 | 0.25 | 0.25 | 57 | 1017.0 |
| 20260905023035 | 26 | 348 | 0.0 | 6.4 | 0.00 | 0.25 | 0.25 | 57 | 1017.0 |
| 20260905022533 | 26 | 348 | 0.0 | 6.4 | 0.00 | 0.25 | 0.25 | 58 | 1016.9 |
| 20260905022034 | 26 | 348 | 1.6 | 4.8 | 0.00 | 0.25 | 0.25 | 57 | 1016.9 |
| 20260905021534 | 26 | 346 | 1.6 | 8.0 | 0.03 | 0.25 | 0.25 | 56 | 1016.9 |
| 20260905021033 | 26 | 342 | 1.6 | 8.0 | 0.03 | 0.25 | 0.25 | 57 | 1016.9 |
| 20260905020533 | 26 | 348 | 1.6 | 8.0 | 0.03 | 0.25 | 0.25 | 58 | 1016.8 |
| 20260905020038 | 26 | 336 | 1.6 | 6.4 | 0.03 | 0.25 | 0.25 | 60 | 1016.7 |
| 20260905015533 | 26 | 300 | 1.6 | 4.8 | 0.10 | 0.25 | 0.25 | 61 | 1016.7 |
| 20260905015032 | 26 | 358 | 1.6 | 6.4 | 0.10 | 0.25 | 0.25 | 62 | 1016.5 |
| 20260905014531 | 26 | 352 | 1.6 | 4.8 | 0.10 | 0.25 | 0.25 | 63 | 1016.6 |
| 20260905014033 | 26 | 352 | 1.6 | 9.7 | 0.10 | 0.25 | 0.25 | 61 | 1016.5 |
| 20260905013532 | 26 | 354 | 1.6 | 9.7 | 0.10 | 0.25 | 0.25 | 64 | 1016.4 |
| 20260905013031 | 26 | 348 | 3.2 | 9.7 | 0.10 | 0.25 | 0.25 | 63 | 1016.4 |
| 20260905012532 | 25 | 1 | 1.6 | 9.7 | 0.10 | 0.25 | 0.25 | 67 | 1016.3 |
| 20260905012032 | 25 | 345 | 4.8 | 11.3 | 0.10 | 0.25 | 0.25 | 68 | 1016.3 |
| 20260905011536 | 25 | 360 | 3.2 | 12.9 | 0.08 | 0.23 | 0.23 | 70 | 1016.3 |
| 20260905011031 | 25 | 13 | 6.4 | 14.5 | 0.08 | 0.23 | 0.23 | 73 | 1016.3 |
| 20260905010531 | 25 | 350 | 8.0 | 17.7 | 0.08 | 0.23 | 0.23 | 68 | 1016.4 |
| 20260905010033 | 26 | 296 | 9.7 | 19.3 | 0.08 | 0.23 | 0.23 | 63 | 1016.5 |
| 20260905005531 | 28 | 312 | 9.7 | 20.9 | 0.00 | 0.15 | 0.15 | 53 | 1016.3 |
| 20260905005031 | 28 | 335 | 11.3 | 20.9 | 0.00 | 0.15 | 0.15 | 48 | 1016.3 |
| 20260905004530 | 28 | 330 | 9.7 | 22.5 | 0.00 | 0.15 | 0.15 | 48 | 1016.3 |
| 20260905004029 | 29 | 336 | 14.5 | 22.5 | 0.00 | 0.15 | 0.15 | 46 | 1016.3 |
| 20260905003529 | 29 | 319 | 8.0 | 22.5 | 0.00 | 0.15 | 0.15 | 46 | 1016.3 |
| 20260905003033 | 30 | 320 | 9.7 | 20.9 | 0.00 | 0.15 | 0.15 | 45 | 1016.2 |
| 20260905002529 | 30 | 311 | 8.0 | 20.9 | 0.00 | 0.15 | 0.15 | 42 | 1016.2 |
| 20260905002029 | 31 | 313 | 11.3 | 20.9 | 0.00 | 0.15 | 0.15 | 40 | 1016.1 |
| 20260905001529 | 32 | 218 | 3.2 | 11.3 | 0.00 | 0.15 | 0.15 | 36 | 1016.0 |
| 20260905001029 | 32 | 226 | 4.8 | 11.3 | 0.00 | 0.15 | 0.15 | 36 | 1015.8 |
| 20260905000529 | 32 | 258 | 4.8 | 11.3 | 0.00 | 0.15 | 0.15 | 36 | 1015.9 |
| 20260905000028 | 32 | 300 | 4.8 | 11.3 | 0.00 | 0.15 | 0.15 | 35 | 1015.8 |
| 20260904235528 | 32 | 319 | 3.2 | 11.3 | 0.00 | 0.15 | 0.15 | 35 | 1015.8 |
| 20260904235028 | 32 | 321 | 4.8 | 11.3 | 0.00 | 0.15 | 0.15 | 34 | 1015.8 |
| 20260904234527 | 32 | 234 | 4.8 | 11.3 | 0.00 | 0.15 | 0.15 | 35 | 1015.8 |
| 20260904234028 | 32 | 240 | 4.8 | 11.3 | 0.00 | 0.15 | 0.15 | 36 | 1015.8 |
| 20260904233528 | 32 | 184 | 3.2 | 11.3 | 0.00 | 0.15 | 0.15 | 36 | 1015.8 |
| 20260904233030 | 32 | 254 | 8.0 | 12.9 | 0.00 | 0.15 | 0.15 | 36 | 1015.8 |
| 20260904232526 | 32 | 249 | 8.0 | 12.9 | 0.00 | 0.15 | 0.15 | 36 | 1015.8 |
| 20260904232028 | 32 | 246 | 3.2 | 9.7 | 0.00 | 0.15 | 0.15 | 37 | 1015.9 |
| 20260904231535 | 32 | 346 | 3.2 | 12.9 | 0.00 | 0.15 | 0.15 | 36 | 1015.9 |
| 20260904231026 | 32 | 310 | 6.4 | 16.1 | 0.00 | 0.15 | 0.15 | 37 | 1016.0 |
| 20260904230526 | 32 | 165 | 1.6 | 16.1 | 0.00 | 0.15 | 0.15 | 37 | 1015.9 |
| 20260904230042 | 32 | 281 | 9.7 | 14.5 | 0.00 | 0.15 | 0.15 | 37 | 1015.9 |
| 20260904225527 | 32 | 281 | 3.2 | 12.9 | 0.00 | 0.15 | 0.15 | 36 | 1015.9 |
| 20260904225026 | 32 | 250 | 6.4 | 12.9 | 0.00 | 0.15 | 0.15 | 36 | 1015.8 |
| 20260904224525 | 32 | 195 | 1.6 | 8.0 | 0.00 | 0.15 | 0.15 | 38 | 1015.8 |
| 20260904224025 | 32 | 119 | 0.0 | 9.7 | 0.00 | 0.15 | 0.15 | 38 | 1015.8 |
| 20260904223524 | 32 | 109 | 3.2 | 8.0 | 0.00 | 0.15 | 0.15 | 39 | 1015.9 |
| 20260904223024 | 31 | 112 | 1.6 | 8.0 | 0.00 | 0.15 | 0.15 | 41 | 1015.9 |
| 20260904222522 | 31 | 334 | 3.2 | 11.3 | 0.00 | 0.15 | 0.15 | 40 | 1016.0 |
| 20260904222022 | 31 | 348 | 4.8 | 11.3 | 0.00 | 0.15 | 0.15 | 40 | 1016.1 |
| 20260904221521 | 32 | 324 | 1.6 | 6.4 | 0.00 | 0.15 | 0.15 | 40 | 1016.2 |
| 20260904221022 | 32 | 18 | 0.0 | 6.4 | 0.00 | 0.15 | 0.15 | 40 | 1016.2 |
| 20260904220521 | 31 | 169 | 0.0 | 3.2 | 0.00 | 0.15 | 0.15 | 42 | 1016.3 |
| 20260904220021 | 31 | 169 | 0.0 | 8.0 | 0.00 | 0.15 | 0.15 | 41 | 1016.4 |
| 20260904215521 | 31 | 240 | 1.6 | 8.0 | 0.00 | 0.15 | 0.15 | 41 | 1016.5 |
| 20260904215019 | 31 | 311 | 0.0 | 9.7 | 0.00 | 0.15 | 0.15 | 41 | 1016.5 |
| 20260904214620 | 31 | 307 | 1.6 | 11.3 | 0.00 | 0.15 | 0.15 | 41 | 1016.5 |
| 20260904214019 | 32 | 334 | 3.2 | 11.3 | 0.00 | 0.15 | 0.15 | 39 | 1016.5 |
| 20260904213518 | 32 | 30 | 0.0 | 12.9 | 0.00 | 0.15 | 0.15 | 39 | 1016.6 |
| 20260904213027 | 32 | 178 | 6.4 | 12.9 | 0.00 | 0.15 | 0.15 | 40 | 1016.8 |
| 20260904212517 | 32 | 260 | 6.4 | 12.9 | 0.00 | 0.15 | 0.15 | 40 | 1016.8 |
| 20260904212017 | 32 | 225 | 4.8 | 12.9 | 0.00 | 0.15 | 0.15 | 40 | 1016.8 |
| 20260904211515 | 32 | 281 | 1.6 | 9.7 | 0.00 | 0.15 | 0.15 | 40 | 1016.8 |
| 20260904211015 | 31 | 31 | 1.6 | 12.9 | 0.00 | 0.15 | 0.15 | 40 | 1016.8 |
| 20260904210515 | 32 | 199 | 3.2 | 12.9 | 0.00 | 0.15 | 0.15 | 40 | 1016.9 |
| 20260904210014 | 32 | 300 | 6.4 | 12.9 | 0.00 | 0.15 | 0.15 | 41 | 1017.0 |
| 20260904205513 | 32 | 169 | 6.4 | 12.9 | 0.00 | 0.15 | 0.15 | 40 | 1017.0 |
| 20260904205012 | 32 | 355 | 1.6 | 16.1 | 0.00 | 0.15 | 0.15 | 39 | 1017.0 |
| 20260904204521 | 32 | 248 | 4.8 | 16.1 | 0.00 | 0.15 | 0.15 | 40 | 1017.1 |
| 20260904204012 | 31 | 232 | 3.2 | 9.7 | 0.00 | 0.15 | 0.15 | 42 | 1017.3 |
| 20260904203510 | 31 | 171 | 3.2 | 8.0 | 0.00 | 0.15 | 0.15 | 41 | 1017.3 |
| 20260904203016 | 31 | 315 | 1.6 | 16.1 | 0.00 | 0.15 | 0.15 | 43 | 1017.5 |
| 20260904202512 | 31 | 182 | 8.0 | 16.1 | 0.00 | 0.15 | 0.15 | 43 | 1017.4 |
| 20260904202010 | 31 | 292 | 3.2 | 14.5 | 0.00 | 0.15 | 0.15 | 43 | 1017.6 |
| 20260904201508 | 31 | 244 | 6.4 | 14.5 | 0.00 | 0.15 | 0.15 | 42 | 1017.7 |
| 20260904201008 | 31 | 265 | 6.4 | 16.1 | 0.00 | 0.15 | 0.15 | 44 | 1017.8 |
| 20260904200509 | 31 | 164 | 6.4 | 16.1 | 0.00 | 0.15 | 0.15 | 42 | 1017.8 |
| 20260904200007 | 31 | 169 | 6.4 | 16.1 | 0.00 | 0.15 | 0.15 | 43 | 1017.8 |
| 20260904195507 | 30 | 184 | 4.8 | 20.9 | 0.00 | 0.15 | 0.15 | 44 | 1017.8 |
| 20260904195007 | 30 | 159 | 4.8 | 20.9 | 0.00 | 0.15 | 0.15 | 44 | 1017.9 |
| 20260904194507 | 31 | 186 | 6.4 | 16.1 | 0.00 | 0.15 | 0.15 | 44 | 1018.1 |
| 20260904194006 | 31 | 173 | 8.0 | 16.1 | 0.00 | 0.15 | 0.15 | 45 | 1018.1 |
| 20260904193504 | 30 | 165 | 0.0 | 6.4 | 0.00 | 0.15 | 0.15 | 45 | 1018.2 |
| 20260904193003 | 30 | 215 | 1.6 | 12.9 | 0.00 | 0.15 | 0.15 | 45 | 1018.2 |
| 20260904192503 | 30 | 300 | 1.6 | 12.9 | 0.00 | 0.15 | 0.15 | 46 | 1018.3 |
| 20260904192003 | 30 | 236 | 4.8 | 16.1 | 0.00 | 0.15 | 0.15 | 45 | 1018.4 |
| 20260904191502 | 30 | 315 | 4.8 | 14.5 | 0.00 | 0.15 | 0.15 | 45 | 1018.5 |
| 20260904191001 | 29 | 237 | 0.0 | 11.3 | 0.00 | 0.15 | 0.15 | 48 | 1018.5 |
| 20260904190501 | 29 | 211 | 6.4 | 11.3 | 0.00 | 0.15 | 0.15 | 49 | 1018.6 |
| 20260904190002 | 29 | 254 | 4.8 | 14.5 | 0.00 | 0.15 | 0.15 | 50 | 1018.7 |
| 20260904185601 | 28 | 241 | 3.2 | 14.5 | 0.00 | 0.15 | 0.15 | 51 | 1018.8 |
| 20260904185104 | 29 | 246 | 8.0 | 14.5 | 0.00 | 0.15 | 0.15 | 49 | 1018.9 |
| 20260904184600 | 29 | 202 | 8.0 | 11.3 | 0.00 | 0.15 | 0.15 | 49 | 1018.9 |
| 20260904184059 | 29 | 123 | 1.6 | 8.0 | 0.00 | 0.15 | 0.15 | 48 | 1019.0 |
| 20260904183601 | 28 | 345 | 0.0 | 12.9 | 0.00 | 0.15 | 0.15 | 50 | 1019.1 |
| 20260904183115 | 28 | 238 | 4.8 | 12.9 | 0.00 | 0.15 | 0.15 | 49 | 1019.3 |
| 20260904182558 | 28 | 161 | 6.4 | 12.9 | 0.00 | 0.15 | 0.15 | 50 | 1019.3 |
| 20260904182056 | 28 | 196 | 3.2 | 12.9 | 0.00 | 0.15 | 0.15 | 52 | 1019.4 |
| 20260904181556 | 28 | 178 | 1.6 | 12.9 | 0.00 | 0.15 | 0.15 | 53 | 1019.5 |
| 20260904181056 | 28 | 294 | 0.0 | 8.0 | 0.00 | 0.15 | 0.15 | 52 | 1019.5 |
| 20260904180556 | 29 | 100 | 1.6 | 4.8 | 0.00 | 0.15 | 0.15 | 53 | 1019.6 |
| 20260904180058 | 28 | 102 | 1.6 | 14.5 | 0.00 | 0.15 | 0.15 | 55 | 1019.7 |
| 20260904175553 | 27 | 254 | 6.4 | 14.5 | 0.00 | 0.15 | 0.15 | 57 | 1019.8 |
| 20260904175052 | 27 | 251 | 3.2 | 11.3 | 0.00 | 0.15 | 0.15 | 57 | 1019.8 |
| 20260904174550 | 27 | 344 | 3.2 | 9.7 | 0.00 | 0.15 | 0.15 | 57 | 1019.8 |
| 20260904174051 | 27 | 205 | 1.6 | 11.3 | 0.00 | 0.15 | 0.15 | 59 | 1019.8 |
| 20260904173550 | 27 | 250 | 4.8 | 11.3 | 0.00 | 0.15 | 0.15 | 58 | 1019.9 |
| 20260904173055 | 27 | 150 | 1.6 | 11.3 | 0.00 | 0.15 | 0.15 | 60 | 1019.9 |
| 20260904172549 | 26 | 193 | 1.6 | 9.7 | 0.00 | 0.15 | 0.15 | 59 | 1020.0 |
| 20260904172049 | 26 | 276 | 3.2 | 9.7 | 0.00 | 0.15 | 0.15 | 59 | 1020.0 |
| 20260904171607 | 26 | 25 | 1.6 | 9.7 | 0.00 | 0.15 | 0.15 | 59 | 1020.0 |
| 20260904171048 | 26 | 303 | 6.4 | 9.7 | 0.00 | 0.15 | 0.15 | 62 | 1020.0 |
| 20260904170548 | 26 | 223 | 3.2 | 8.0 | 0.00 | 0.15 | 0.15 | 62 | 1020.0 |
| 20260904170047 | 26 | 343 | 1.6 | 11.3 | 0.00 | 0.15 | 0.15 | 62 | 1020.1 |
| 20260904165547 | 26 | 247 | 1.6 | 11.3 | 0.00 | 0.15 | 0.15 | 62 | 1020.1 |
| 20260904165047 | 26 | 216 | 4.8 | 9.7 | 0.00 | 0.15 | 0.15 | 62 | 1020.1 |
| 20260904164556 | 25 | 342 | 1.6 | 9.7 | 0.00 | 0.15 | 0.15 | 63 | 1020.0 |
| 20260904164046 | 25 | 276 | 3.2 | 9.7 | 0.00 | 0.15 | 0.15 | 65 | 1020.1 |
| 20260904163544 | 24 | 286 | 3.2 | 8.0 | 0.00 | 0.15 | 0.15 | 66 | 1020.1 |
| 20260904163044 | 24 | 276 | 0.0 | 8.0 | 0.00 | 0.15 | 0.15 | 65 | 1020.1 |
| 20260904162544 | 25 | 276 | 3.2 | 8.0 | 0.00 | 0.15 | 0.15 | 65 | 1020.0 |
| 20260904162043 | 24 | 286 | 0.0 | 9.7 | 0.00 | 0.15 | 0.15 | 65 | 1020.1 |
| 20260904161548 | 24 | 211 | 0.0 | 9.7 | 0.00 | 0.15 | 0.15 | 68 | 1020.0 |
| 20260904161043 | 23 | 204 | 0.0 | 3.2 | 0.00 | 0.15 | 0.15 | 70 | 1020.0 |
| 20260904160542 | 23 | 203 | 0.0 | 8.0 | 0.00 | 0.15 | 0.15 | 70 | 1019.9 |
| 20260904160041 | 23 | 208 | 3.2 | 8.0 | 0.00 | 0.15 | 0.15 | 71 | 1020.0 |
| 20260904155541 | 23 | 211 | 3.2 | 9.7 | 0.00 | 0.15 | 0.15 | 72 | 1020.0 |
| 20260904155040 | 23 | 227 | 3.2 | 9.7 | 0.00 | 0.15 | 0.15 | 73 | 1020.0 |
| 20260904154539 | 22 | 168 | 3.2 | 9.7 | 0.00 | 0.15 | 0.15 | 75 | 1020.0 |
| 20260904154038 | 22 | 195 | 3.2 | 8.0 | 0.00 | 0.15 | 0.15 | 75 | 1020.0 |
| 20260904153536 | 22 | 165 | 1.6 | 8.0 | 0.00 | 0.15 | 0.15 | 76 | 1020.0 |
| 20260904153054 | 22 | 203 | 1.6 | 8.0 | 0.00 | 0.15 | 0.15 | 78 | 1020.0 |
| 20260904152533 | 22 | 215 | 1.6 | 4.8 | 0.00 | 0.15 | 0.15 | 78 | 1019.9 |
| 20260904152034 | 22 | 248 | 3.2 | 8.0 | 0.00 | 0.15 | 0.15 | 78 | 1019.8 |
| 20260904151533 | 22 | 260 | 3.2 | 9.7 | 0.00 | 0.15 | 0.15 | 79 | 1019.8 |
| 20260904151032 | 22 | 206 | 1.6 | 9.7 | 0.00 | 0.15 | 0.15 | 80 | 1019.8 |
| 20260904150532 | 22 | 217 | 3.2 | 9.7 | 0.00 | 0.15 | 0.15 | 79 | 1019.8 |
| 20260904150040 | 21 | 248 | 1.6 | 4.8 | 0.00 | 0.15 | 0.15 | 81 | 1019.8 |
| 20260904145532 | 21 | 163 | 0.0 | 4.8 | 0.00 | 0.15 | 0.15 | 81 | 1019.8 |
| 20260904145034 | 21 | 163 | 0.0 | 8.0 | 0.00 | 0.15 | 0.15 | 83 | 1019.7 |
| 20260904144530 | 21 | 163 | 1.6 | 8.0 | 0.00 | 0.15 | 0.15 | 82 | 1019.7 |
| 20260904144029 | 21 | 196 | 1.6 | 6.4 | 0.00 | 0.15 | 0.15 | 83 | 1019.7 |
| 20260904143528 | 21 | 196 | 1.6 | 4.8 | 0.00 | 0.15 | 0.15 | 83 | 1019.8 |
| 20260904143026 | 21 | 250 | 1.6 | 4.8 | 0.00 | 0.15 | 0.15 | 84 | 1019.8 |
| 20260904142528 | 21 | 250 | 1.6 | 8.0 | 0.00 | 0.15 | 0.15 | 83 | 1019.8 |
| 20260904142024 | 21 | 250 | 1.6 | 8.0 | 0.00 | 0.15 | 0.15 | 84 | 1019.7 |
| 20260904141523 | 21 | 224 | 3.2 | 6.4 | 0.00 | 0.15 | 0.15 | 84 | 1019.7 |
| 20260904141023 | 21 | 205 | 0.0 | 6.4 | 0.03 | 0.15 | 0.15 | 84 | 1019.7 |
| 20260904140521 | 21 | 205 | 1.6 | 6.4 | 0.03 | 0.15 | 0.15 | 83 | 1019.7 |
| 20260904140031 | 21 | 206 | 1.6 | 4.8 | 0.03 | 0.15 | 0.15 | 83 | 1019.5 |
| 20260904135519 | 21 | 205 | 1.6 | 4.8 | 0.03 | 0.15 | 0.15 | 83 | 1019.6 |
| 20260904135018 | 21 | 106 | 0.0 | 3.2 | 0.03 | 0.15 | 0.15 | 85 | 1019.4 |
| 20260904134516 | 21 | 106 | 0.0 | 3.2 | 0.03 | 0.15 | 0.15 | 86 | 1019.4 |
| 20260904134018 | 21 | 106 | 0.0 | 0.0 | 0.03 | 0.15 | 0.15 | 85 | 1019.4 |
| 20260904133513 | 21 | 106 | 0.0 | 0.0 | 0.03 | 0.15 | 0.15 | 85 | 1019.3 |
| 20260904133012 | 21 | 106 | 0.0 | 0.0 | 0.03 | 0.15 | 0.15 | 86 | 1019.3 |
| 20260904132511 | 20 | 106 | 0.0 | 0.0 | 0.05 | 0.15 | 0.15 | 86 | 1019.3 |
| 20260904132111 | 20 | 106 | 0.0 | 3.2 | 0.05 | 0.15 | 0.15 | 86 | 1019.2 |
| 20260904131533 | 20 | 106 | 0.0 | 3.2 | 0.05 | 0.15 | 0.15 | 86 | 1019.2 |
| 20260904131012 | 20 | 106 | 0.0 | 1.6 | 0.05 | 0.13 | 0.13 | 87 | 1019.2 |
| 20260904130512 | 20 | 106 | 0.0 | 1.6 | 0.05 | 0.13 | 0.13 | 87 | 1019.0 |
| 20260904130009 | 20 | 106 | 0.0 | 3.2 | 0.08 | 0.13 | 0.13 | 87 | 1019.0 |
| 20260904125510 | 20 | 106 | 0.0 | 3.2 | 0.08 | 0.13 | 0.13 | 86 | 1019.0 |
| 20260904125008 | 20 | 106 | 0.0 | 3.2 | 0.08 | 0.13 | 0.13 | 87 | 1018.9 |
| 20260904124507 | 20 | 106 | 0.0 | 3.2 | 0.08 | 0.13 | 0.13 | 87 | 1018.9 |
| 20260904124006 | 20 | 106 | 0.0 | 6.4 | 0.10 | 0.13 | 0.13 | 86 | 1018.8 |
| 20260904123509 | 20 | 214 | 1.6 | 6.4 | 0.10 | 0.13 | 0.13 | 87 | 1018.9 |
| 20260904123005 | 20 | 214 | 0.0 | 6.4 | 0.10 | 0.13 | 0.13 | 87 | 1018.9 |
| 20260904122505 | 20 | 90 | 0.0 | 8.0 | 0.08 | 0.10 | 0.10 | 88 | 1019.0 |
| 20260904122003 | 20 | 92 | 1.6 | 8.0 | 0.08 | 0.10 | 0.10 | 87 | 1018.9 |
| 20260904121504 | 20 | 115 | 4.8 | 8.0 | 0.08 | 0.10 | 0.10 | 85 | 1019.0 |
| 20260904121001 | 20 | 170 | 0.0 | 6.4 | 0.05 | 0.08 | 0.08 | 86 | 1019.1 |
| 20260904120603 | 20 | 170 | 1.6 | 6.4 | 0.05 | 0.08 | 0.08 | 84 | 1019.0 |
| 20260904115559 | 20 | 170 | 1.6 | 6.4 | 0.03 | 0.05 | 0.05 | 83 | 1019.0 |
| 20260904115058 | 20 | 170 | 0.0 | 3.2 | 0.03 | 0.05 | 0.05 | 83 | 1019.0 |
| 20260904114605 | 20 | 170 | 0.0 | 3.2 | 0.03 | 0.05 | 0.05 | 84 | 1018.8 |
| 20260904114057 | 20 | 170 | 0.0 | 8.0 | 0.00 | 0.03 | 0.03 | 84 | 1018.9 |
| 20260904113556 | 20 | 170 | 1.6 | 8.0 | 0.00 | 0.03 | 0.03 | 84 | 1019.0 |
| 20260904113056 | 21 | 157 | 1.6 | 3.2 | 0.00 | 0.03 | 0.03 | 83 | 1019.0 |
| 20260904112557 | 21 | 157 | 0.0 | 6.4 | 0.00 | 0.03 | 0.03 | 82 | 1018.9 |
| 20260904112052 | 21 | 157 | 1.6 | 4.8 | 0.00 | 0.03 | 0.03 | 82 | 1018.9 |
| 20260904111552 | 21 | 157 | 1.6 | 6.4 | 0.03 | 0.03 | 0.03 | 80 | 1018.9 |
| 20260904111051 | 21 | 157 | 0.0 | 6.4 | 0.03 | 0.03 | 0.03 | 81 | 1018.9 |
| 20260904110550 | 21 | 157 | 1.6 | 6.4 | 0.03 | 0.03 | 0.03 | 79 | 1019.0 |
| 20260904110050 | 21 | 157 | 0.0 | 6.4 | 0.03 | 0.03 | 0.03 | 78 | 1019.0 |
| 20260904105550 | 21 | 157 | 1.6 | 6.4 | 0.03 | 0.03 | 0.03 | 78 | 1019.1 |
| 20260904105051 | 21 | 157 | 1.6 | 4.8 | 0.03 | 0.03 | 0.03 | 77 | 1019.1 |
| 20260904104552 | 21 | 103 | 0.0 | 3.2 | 0.03 | 0.03 | 0.03 | 78 | 1018.9 |
| 20260904104047 | 21 | 103 | 0.0 | 6.4 | 0.03 | 0.03 | 0.03 | 77 | 1018.9 |
| 20260904103547 | 21 | 103 | 0.0 | 8.0 | 0.03 | 0.03 | 0.03 | 77 | 1018.8 |
| 20260904103055 | 21 | 103 | 0.0 | 9.7 | 0.03 | 0.03 | 0.03 | 76 | 1018.8 |
| 20260904102548 | 21 | 103 | 4.8 | 9.7 | 0.03 | 0.03 | 0.03 | 78 | 1018.7 |
| 20260904102047 | 21 | 92 | 3.2 | 8.0 | 0.03 | 0.03 | 0.03 | 78 | 1018.7 |
| 20260904101551 | 21 | 239 | 1.6 | 4.8 | 0.00 | 0.00 | 0.00 | 79 | 1018.6 |
| 20260904101046 | 21 | 239 | 0.0 | 1.6 | 0.00 | 0.00 | 0.00 | 77 | 1018.7 |
| 20260904100545 | 22 | 239 | 0.0 | 3.2 | 0.00 | 0.00 | 0.00 | 73 | 1018.7 |
| 20260904100049 | 22 | 239 | 0.0 | 3.2 | 0.00 | 0.00 | 0.00 | 71 | 1018.7 |
| 20260904095543 | 22 | 239 | 0.0 | 6.4 | 0.00 | 0.00 | 0.00 | 72 | 1018.7 |
| 20260904095046 | 22 | 239 | 0.0 | 6.4 | 0.00 | 0.00 | 0.00 | 69 | 1018.7 |
| 20260904094558 | 22 | 265 | 0.0 | 12.9 | 0.00 | 0.00 | 0.00 | 67 | 1018.6 |
| 20260904094040 | 22 | 263 | 4.8 | 14.5 | 0.00 | 0.00 | 0.00 | 64 | 1018.7 |
| 20260904093539 | 22 | 222 | 4.8 | 14.5 | 0.00 | 0.00 | 0.00 | 63 | 1018.8 |
| 20260904093038 | 22 | 210 | 8.0 | 16.1 | 0.00 | 0.00 | 0.00 | 63 | 1018.7 |
| 20260904092536 | 23 | 195 | 9.7 | 16.1 | 0.00 | 0.00 | 0.00 | 62 | 1018.7 |
| 20260904092036 | 23 | 237 | 6.4 | 12.9 | 0.00 | 0.00 | 0.00 | 62 | 1018.6 |
| 20260904091536 | 23 | 215 | 6.4 | 11.3 | 0.00 | 0.00 | 0.00 | 62 | 1018.5 |
| 20260904091036 | 23 | 230 | 6.4 | 9.7 | 0.00 | 0.00 | 0.00 | 62 | 1018.5 |
| 20260904090534 | 23 | 194 | 3.2 | 11.3 | 0.00 | 0.00 | 0.00 | 62 | 1018.6 |
| 20260904090035 | 23 | 209 | 3.2 | 11.3 | 0.00 | 0.00 | 0.00 | 61 | 1018.8 |
| 20260904085534 | 23 | 186 | 3.2 | 8.0 | 0.00 | 0.00 | 0.00 | 61 | 1018.8 |
| 20260904085034 | 23 | 163 | 3.2 | 12.9 | 0.00 | 0.00 | 0.00 | 61 | 1018.8 |
| 20260904084533 | 23 | 193 | 3.2 | 12.9 | 0.00 | 0.00 | 0.00 | 61 | 1018.9 |
| 20260904084034 | 23 | 167 | 4.8 | 14.5 | 0.00 | 0.00 | 0.00 | 61 | 1019.0 |
| 20260904083532 | 23 | 164 | 6.4 | 14.5 | 0.00 | 0.00 | 0.00 | 60 | 1018.9 |
| 20260904083039 | 23 | 223 | 8.0 | 14.5 | 0.00 | 0.00 | 0.00 | 60 | 1018.8 |
| 20260904082532 | 23 | 179 | 6.4 | 16.1 | 0.00 | 0.00 | 0.00 | 59 | 1018.8 |
| 20260904082031 | 23 | 186 | 8.0 | 19.3 | 0.00 | 0.00 | 0.00 | 58 | 1018.8 |
| 20260904081529 | 23 | 196 | 11.3 | 20.9 | 0.00 | 0.00 | 0.00 | 57 | 1018.8 |
| 20260904081030 | 24 | 153 | 12.9 | 19.3 | 0.00 | 0.00 | 0.00 | 56 | 1018.9 |
| 20260904080531 | 24 | 196 | 9.7 | 20.9 | 0.00 | 0.00 | 0.00 | 55 | 1018.9 |
| 20260904080026 | 24 | 175 | 12.9 | 20.9 | 0.00 | 0.00 | 0.00 | 54 | 1018.9 |
| 20260904075525 | 24 | 157 | 11.3 | 17.7 | 0.00 | 0.00 | 0.00 | 54 | 1018.9 |
| 20260904075024 | 24 | 173 | 4.8 | 16.1 | 0.00 | 0.00 | 0.00 | 54 | 1018.9 |
| 20260904074522 | 25 | 186 | 9.7 | 16.1 | 0.00 | 0.00 | 0.00 | 54 | 1018.8 |
| 20260904074021 | 25 | 154 | 4.8 | 19.3 | 0.00 | 0.00 | 0.00 | 55 | 1018.7 |
| 20260904073521 | 25 | 225 | 9.7 | 19.3 | 0.00 | 0.00 | 0.00 | 55 | 1018.8 |
| 20260904073024 | 25 | 165 | 9.7 | 19.3 | 0.00 | 0.00 | 0.00 | 55 | 1018.7 |
| 20260904072520 | 25 | 223 | 8.0 | 19.3 | 0.00 | 0.00 | 0.00 | 56 | 1018.7 |
| 20260904072019 | 25 | 195 | 11.3 | 19.3 | 0.00 | 0.00 | 0.00 | 56 | 1018.5 |
| 20260904071516 | 25 | 203 | 6.4 | 20.9 | 0.00 | 0.00 | 0.00 | 55 | 1018.4 |
| 20260904071015 | 25 | 214 | 11.3 | 20.9 | 0.00 | 0.00 | 0.00 | 54 | 1018.3 |
| 20260904070517 | 26 | 209 | 6.4 | 25.7 | 0.00 | 0.00 | 0.00 | 54 | 1018.3 |
| 20260904070014 | 26 | 216 | 14.5 | 25.7 | 0.00 | 0.00 | 0.00 | 51 | 1018.2 |
| 20260904065512 | 26 | 215 | 8.0 | 14.5 | 0.00 | 0.00 | 0.00 | 46 | 1018.1 |
| 20260904065011 | 26 | 157 | 3.2 | 9.7 | 0.00 | 0.00 | 0.00 | 46 | 1017.9 |
| 20260904064514 | 26 | 167 | 4.8 | 17.7 | 0.00 | 0.00 | 0.00 | 46 | 1017.6 |
| 20260904064016 | 26 | 256 | 6.4 | 17.7 | 0.00 | 0.00 | 0.00 | 46 | 1017.5 |
| 20260904063508 | 26 | 222 | 3.2 | 14.5 | 0.00 | 0.00 | 0.00 | 45 | 1017.5 |
| 20260904063008 | 26 | 205 | 4.8 | 17.7 | 0.00 | 0.00 | 0.00 | 45 | 1017.5 |
| 20260904062507 | 27 | 265 | 8.0 | 17.7 | 0.00 | 0.00 | 0.00 | 44 | 1017.5 |
| 20260904062006 | 27 | 233 | 8.0 | 16.1 | 0.00 | 0.00 | 0.00 | 43 | 1017.5 |
| 20260904061505 | 26 | 221 | 4.8 | 9.7 | 0.00 | 0.00 | 0.00 | 43 | 1017.3 |
| 20260904061006 | 26 | 207 | 3.2 | 8.0 | 0.00 | 0.00 | 0.00 | 43 | 1017.2 |
| 20260904060503 | 26 | 247 | 3.2 | 8.0 | 0.00 | 0.00 | 0.00 | 42 | 1017.1 |
| 20260904060009 | 27 | 232 | 3.2 | 14.5 | 0.00 | 0.00 | 0.00 | 41 | 1017.2 |
| 20260904055503 | 26 | 218 | 4.8 | 14.5 | 0.00 | 0.00 | 0.00 | 41 | 1017.1 |
| 20260904055001 | 26 | 248 | 4.8 | 9.7 | 0.00 | 0.00 | 0.00 | 43 | 1017.1 |
| 20260904054634 | 26 | 43 | 0.0 | 3.2 | 0.00 | 0.00 | 0.00 | 41 | 1017.0 |
| 20260904054101 | 26 | 43 | 0.0 | 1.6 | 0.00 | 0.00 | 0.00 | 40 | 1016.9 |
| 20260904053600 | 26 | 43 | 0.0 | 1.6 | 0.00 | 0.00 | 0.00 | 40 | 1016.8 |
| 20260904053100 | 26 | 43 | 0.0 | 1.6 | 0.00 | 0.00 | 0.00 | 40 | 1016.8 |
| 20260904052600 | 26 | 43 | 0.0 | 6.4 | 0.00 | 0.00 | 0.00 | 39 | 1016.8 |
| 20260904052101 | 27 | 43 | 1.6 | 6.4 | 0.00 | 0.00 | 0.00 | 39 | 1016.9 |
| 20260904051601 | 27 | 43 | 0.0 | 3.2 | 0.00 | 0.00 | 0.00 | 39 | 1016.9 |
| 20260904051101 | 27 | 43 | 0.0 | 6.4 | 0.00 | 0.00 | 0.00 | 39 | 1016.9 |
| 20260904050559 | 27 | 42 | 1.6 | 6.4 | 0.00 | 0.00 | 0.00 | 39 | 1016.9 |
| 20260904050100 | 27 | 16 | 0.0 | 3.2 | 0.00 | 0.00 | 0.00 | 40 | 1016.9 |
| 20260904045600 | 27 | 16 | 0.0 | 3.2 | 0.00 | 0.00 | 0.00 | 41 | 1016.9 |